Weather History for White Plains, NY

Change the Weather History Date:

Sunday, February 23, 2014

  Actual Average Record
Temperature  
Mean Temperature 42 °F -  
Max Temperature 50 °F 39 °F 65 °F (1985)
Min Temperature 33 °F 25 °F 10 °F (1999)
Degree Days  
Heating Degree Days 24    
Moisture  
Dew Point 26 °F    
Average Humidity 52    
Maximum Humidity 78    
Minimum Humidity 36    
Precipitation  
Precipitation 0.00 in - - ()
Sea Level Pressure  
Sea Level Pressure 29.93 in    
Wind  
Wind Speed 4 mph (WNW)    
Max Wind Speed 9 mph    
Max Gust Speed 30 mph    
Visibility 10 miles    
Events Rain    
Averages and records for this station are not official NWS values.
T = Trace of Precipitation, MM = Missing Value Source: NWS Daily Summary

Daily Weather History Graph

Daily Weather History Graph

Search for Another Location

Airport:

Trip Planner

Search our weather history database for the weather conditions in past years. The results will help you decide how hot, cold, wet, or windy it might be!

Date:

Astronomy

Feb. 23, 2014 Rise Set
Actual Time 6:38 AM EST 5:38 PM EST
Civil Twilight 6:10 AM EST 6:06 PM EST
Nautical Twilight 5:38 AM EST 6:38 PM EST
Astronomical Twilight 5:06 AM EST 7:10 PM EST
Moon 1:35 AM EST (2/23) 11:37 AM EST (2/23)
Length of Visible Light 11h 56m
Length of Day
11h 00m
Last Quarter, 39% of the Moon is Illuminated
Feb 23
Last Quarter
Mar 1
New
Mar 8
First Quarter
Mar 16
Full
Mar 23
Last Quarter

Hourly Weather History & Observations

Time (EST) Temp. Windchill Dew Point Humidity Pressure Visibility Wind Dir Wind Speed Gust Speed Precip Events Conditions
12:56 AM 44.1 °F 42.5 °F 26.1 °F 49% 30.00 in 10.0 mi Variable 3.5 mph - N/A   Clear
1:56 AM 41.0 °F - 27.0 °F 57% 30.00 in 10.0 mi Calm Calm - N/A   Clear
2:56 AM 43.0 °F 41.3 °F 28.0 °F 56% 29.99 in 10.0 mi SSW 3.5 mph - N/A   Clear
3:56 AM 39.0 °F - 28.0 °F 65% 29.99 in 10.0 mi Calm Calm - N/A   Clear
4:56 AM 35.1 °F - 28.0 °F 76% 30.00 in 10.0 mi Calm Calm - N/A   Clear
5:56 AM 34.0 °F 28.0 °F 27.0 °F 75% 30.00 in 10.0 mi NW 6.9 mph - N/A   Clear
6:56 AM 33.1 °F - 27.0 °F 78% 30.01 in 10.0 mi Calm Calm - N/A   Scattered Clouds
7:56 AM 37.9 °F 33.5 °F 28.9 °F 70% 30.01 in 10.0 mi WNW 5.8 mph - N/A   Partly Cloudy
8:56 AM 42.1 °F 37.7 °F 26.1 °F 53% 30.00 in 10.0 mi NW 6.9 mph - N/A   Clear
9:56 AM 44.1 °F 39.5 °F 25.0 °F 47% 30.00 in 10.0 mi WNW 8.1 mph - N/A   Clear
10:56 AM 46.0 °F 43.9 °F 25.0 °F 44% 29.98 in 10.0 mi WNW 4.6 mph - N/A   Clear
11:56 AM 46.9 °F - 25.0 °F 42% 29.96 in 10.0 mi NW 8.1 mph - N/A   Scattered Clouds
12:56 PM 48.0 °F - 24.1 °F 39% 29.91 in 10.0 mi WNW 8.1 mph - N/A   Clear
1:56 PM 48.0 °F - 25.0 °F 41% 29.90 in 10.0 mi NNW 8.1 mph - N/A   Scattered Clouds
2:56 PM 48.0 °F - 24.1 °F 39% 29.89 in 10.0 mi NW 5.8 mph - N/A   Scattered Clouds
3:56 PM 50.0 °F - 24.1 °F 36% 29.88 in 10.0 mi Calm Calm - N/A   Mostly Cloudy
4:56 PM 48.9 °F - 24.1 °F 38% 29.87 in 10.0 mi Calm Calm - N/A   Mostly Cloudy
5:56 PM 45.0 °F - 25.0 °F 46% 29.86 in 10.0 mi Calm Calm - N/A   Scattered Clouds
6:56 PM 42.1 °F - 27.0 °F 55% 29.87 in 10.0 mi Calm Calm - N/A   Scattered Clouds
7:56 PM 46.0 °F 44.8 °F 25.0 °F 44% 29.86 in 10.0 mi WSW 3.5 mph - N/A   Overcast
8:56 PM 46.0 °F 42.5 °F 26.1 °F 46% 29.84 in 10.0 mi West 6.9 mph - N/A   Overcast
9:56 PM 44.1 °F 40.8 °F 26.1 °F 49% 29.84 in 10.0 mi West 5.8 mph - N/A   Overcast
10:56 PM 44.1 °F 40.1 °F 25.0 °F 47% 29.83 in 10.0 mi West 6.9 mph - N/A   Overcast
11:56 PM 43.0 °F 37.7 °F 25.0 °F 49% 29.83 in 10.0 mi WNW 9.2 mph 29.9 mph 0.00 in Rain Light Rain